DW7888 Weather Reports


Display with metric or nautical units.
time (UTC)temp
F
wind
direction
speed
MPH
gust
MPH
rain 1hr
in
rain 24hr
in
rain mn
in
humidity
%
barometer
mb
20260507234006 52 171 0.0 0.0 0.00 0.25 0.25 91 1011.2
20260507233510 52 171 0.0 0.0 0.00 0.25 0.25 91 1011.0
20260507233010 53 171 0.0 0.0 0.00 0.25 0.25 91 1011.0
20260507232507 53 171 0.0 1.0 0.00 0.25 0.25 91 1011.1
20260507232010 53 171 0.0 1.0 0.00 0.25 0.25 91 1011.1
20260507231508 53 170 0.0 1.0 0.00 0.25 0.25 91 1010.9
20260507231008 53 159 0.0 1.0 0.00 0.25 0.25 91 1010.9
20260507230508 53 183 0.0 1.0 0.00 0.25 0.25 91 1011.0
20260507230008 53 183 0.0 1.0 0.00 0.25 0.25 91 1010.7
20260507225508 53 183 0.0 0.0 0.00 0.25 0.25 91 1010.9
20260507225008 53 183 0.0 0.0 0.00 0.25 0.25 90 1010.9
20260507224514 53 183 0.0 0.0 0.00 0.25 0.25 91 1010.8
20260507224007 53 183 0.0 0.0 0.00 0.25 0.25 90 1010.9
20260507223511 53 183 0.0 1.0 0.00 0.25 0.25 90 1010.9
20260507223013 53 183 0.0 1.0 0.00 0.25 0.25 90 1011.1
20260507222516 53 114 0.0 2.0 0.00 0.25 0.25 89 1011.0
20260507222014 53 117 0.0 2.0 0.00 0.25 0.25 90 1010.9
20260507221510 53 112 0.0 2.0 0.00 0.25 0.25 90 1010.9
20260507221010 53 187 0.0 1.0 0.00 0.25 0.25 91 1010.9
20260507220515 53 189 0.0 4.0 0.00 0.25 0.25 91 1010.9
20260507220013 53 126 0.0 4.0 0.00 0.25 0.25 90 1010.6
20260507215506 53 116 1.0 4.0 0.00 0.25 0.25 90 1010.5
20260507215008 53 160 0.0 3.0 0.00 0.25 0.25 91 1010.6
20260507214519 53 104 1.0 3.0 0.00 0.25 0.25 91 1010.7
20260507214012 54 155 1.0 3.0 0.00 0.25 0.25 92 1010.9
20260507213508 54 179 0.0 3.0 0.01 0.25 0.25 92 1010.7
20260507213017 54 134 0.0 4.0 0.02 0.25 0.25 92 1010.7
20260507212511 54 169 0.0 4.0 0.03 0.25 0.25 92 1010.6
20260507212008 54 261 0.0 3.0 0.04 0.25 0.25 92 1010.7
20260507211512 54 241 0.0 4.0 0.05 0.25 0.25 92 1010.3
20260507211009 53 113 1.0 4.0 0.06 0.25 0.25 92 1010.3
20260507210508 53 125 0.0 4.0 0.06 0.25 0.25 92 1010.6
20260507210016 53 160 0.0 4.0 0.07 0.25 0.25 92 1010.7
20260507205507 53 126 0.0 2.0 0.07 0.25 0.25 92 1010.6
20260507205009 53 107 0.0 0.0 0.07 0.25 0.25 92 1010.7
20260507204515 53 107 0.0 1.0 0.09 0.25 0.25 92 1011.1
20260507204009 52 107 0.0 1.0 0.11 0.25 0.25 91 1011.1
20260507203510 53 107 0.0 1.0 0.10 0.24 0.24 91 1011.1
20260507203016 53 117 0.0 1.0 0.09 0.23 0.23 91 1011.2
20260507202507 53 101 0.0 1.0 0.08 0.22 0.22 90 1011.0
20260507202015 53 102 0.0 1.0 0.07 0.21 0.21 90 1011.0
20260507201518 53 112 0.0 0.0 0.06 0.20 0.20 90 1011.2
20260507201007 53 112 0.0 0.0 0.05 0.19 0.19 90 1011.1
20260507200512 54 112 0.0 0.0 0.05 0.19 0.19 89 1011.0
20260507200020 54 111 0.0 0.0 0.04 0.18 0.18 89 1011.0
20260507195512 54 88 0.0 0.0 0.04 0.18 0.18 88 1010.9
20260507195014 54 87 0.0 0.0 0.04 0.18 0.18 87 1011.3
20260507194520 54 157 0.0 0.0 0.02 0.16 0.16 86 1011.3
20260507194009 54 157 0.0 3.0 0.00 0.14 0.14 86 1011.1
20260507193509 54 149 0.0 3.0 0.00 0.14 0.14 85 1011.0
20260507193023 54 149 1.0 3.0 0.00 0.14 0.14 84 1011.3
20260507192509 55 86 0.0 1.0 0.00 0.14 0.14 84 1011.4
20260507192007 55 55 0.0 1.0 0.00 0.14 0.14 83 1011.4
20260507191520 55 146 0.0 1.0 0.00 0.14 0.14 82 1011.3
20260507191010 55 146 0.0 3.0 0.00 0.14 0.14 80 1011.4
20260507190509 55 122 0.0 4.0 0.00 0.14 0.14 79 1011.5
20260507190024 55 149 0.0 4.0 0.00 0.14 0.14 79 1011.4
20260507185509 55 105 0.0 4.0 0.00 0.14 0.14 79 1011.4
20260507185008 55 194 0.0 4.0 0.00 0.14 0.14 76 1011.5
20260507184522 55 130 0.0 4.0 0.00 0.14 0.14 76 1011.4
20260507184010 56 5 1.0 4.0 0.00 0.14 0.14 76 1011.4
20260507183507 56 148 1.0 4.0 0.00 0.14 0.14 76 1011.3
20260507183022 56 199 0.0 5.0 0.00 0.14 0.14 76 1011.3
20260507182509 56 136 1.0 5.0 0.00 0.14 0.14 76 1011.3
20260507182007 56 153 0.0 5.0 0.00 0.14 0.14 76 1011.5
20260507181524 56 198 1.0 5.0 0.00 0.14 0.14 77 1011.6
20260507181017 56 134 2.0 7.0 0.00 0.14 0.14 78 1011.5
20260507180506 56 128 0.0 7.0 0.00 0.14 0.14 77 1011.5
20260507180003 56 205 2.0 7.0 0.00 0.14 0.14 79 1011.5
20260507175511 56 163 2.0 7.0 0.00 0.14 0.14 78 1011.4
20260507175006 56 136 0.0 5.0 0.00 0.14 0.14 79 1011.5
20260507174513 56 11 0.0 5.0 0.00 0.14 0.14 79 1011.6
20260507174002 56 225 0.0 3.0 0.00 0.14 0.14 77 1011.6
20260507173511 56 225 0.0 5.0 0.00 0.14 0.14 77 1011.7
20260507173006 56 301 0.0 5.0 0.00 0.14 0.14 78 1011.8
20260507172503 56 294 0.0 5.0 0.00 0.14 0.14 81 1012.0
20260507172010 56 129 0.0 5.0 0.00 0.14 0.14 81 1011.8
20260507171505 56 184 0.0 6.0 0.00 0.14 0.14 82 1011.7
20260507171007 56 105 2.0 6.0 0.00 0.14 0.14 82 1011.8
20260507170509 56 188 1.0 6.0 0.00 0.14 0.14 84 1012.0
20260507170006 55 144 0.0 4.0 0.00 0.14 0.14 84 1012.0
20260507165510 55 295 0.0 4.0 0.00 0.14 0.14 84 1012.1
20260507165007 55 155 0.0 4.0 0.00 0.14 0.14 86 1012.2
20260507164507 55 194 1.0 4.0 0.00 0.14 0.14 86 1012.3
20260507164006 55 21 0.0 4.0 0.00 0.14 0.14 85 1012.3
20260507163508 55 9 0.0 4.0 0.00 0.14 0.14 86 1012.3
20260507163007 55 266 1.0 6.0 0.00 0.14 0.14 86 1012.1
20260507162506 55 312 0.0 6.0 0.00 0.14 0.14 86 1012.4
20260507162008 55 160 0.0 3.0 0.00 0.14 0.14 86 1012.4
20260507161509 55 275 0.0 3.0 0.00 0.14 0.14 86 1012.1
20260507161010 55 232 0.0 2.0 0.00 0.14 0.14 86 1012.3
20260507160512 55 169 0.0 4.0 0.00 0.14 0.14 86 1012.3
20260507160031 55 324 0.0 4.0 0.00 0.14 0.14 86 1012.4
20260507155506 55 5 0.0 5.0 0.00 0.14 0.14 86 1012.4
20260507155010 55 27 0.0 5.0 0.00 0.14 0.14 86 1012.4
20260507154510 55 5 0.0 6.0 0.00 0.14 0.14 85 1012.4
20260507154009 55 302 0.0 6.0 0.00 0.14 0.14 84 1012.3
20260507153511 55 22 0.0 3.0 0.00 0.14 0.14 84 1012.3
20260507153010 55 32 0.0 3.0 0.00 0.14 0.14 83 1012.4
20260507152508 56 335 1.0 3.0 0.00 0.14 0.14 82 1012.4
20260507152008 56 308 0.0 6.0 0.00 0.14 0.14 83 1012.3
20260507151511 56 32 0.0 6.0 0.00 0.14 0.14 82 1012.1
20260507151007 56 127 0.0 4.0 0.00 0.14 0.14 83 1012.2
20260507150512 56 64 0.0 4.0 0.00 0.14 0.14 83 1012.2
20260507150011 56 291 0.0 4.0 0.00 0.14 0.14 82 1012.4
20260507145507 56 281 0.0 5.0 0.00 0.14 0.14 84 1012.3
20260507145016 56 172 0.0 6.0 0.00 0.14 0.14 83 1012.3
20260507144512 56 5 2.0 6.0 0.00 0.15 0.14 82 1012.4
20260507144010 56 332 0.0 3.0 0.00 0.15 0.14 84 1012.2
20260507143508 56 54 0.0 3.0 0.00 0.15 0.14 84 1011.9
20260507143011 56 5 0.0 3.0 0.00 0.17 0.14 84 1012.1
20260507142509 56 302 0.0 4.0 0.00 0.18 0.14 85 1012.2
20260507142009 56 307 0.0 4.0 0.00 0.19 0.14 84 1012.2
20260507141514 56 30 0.0 4.0 0.00 0.19 0.14 85 1012.3
20260507141013 56 350 0.0 4.0 0.00 0.21 0.14 85 1012.3
20260507140502 56 34 0.0 4.0 0.00 0.22 0.14 86 1012.4
20260507140031 56 292 0.0 4.0 0.00 0.23 0.14 86 1012.5
20260507135508 56 167 0.0 4.0 0.00 0.23 0.14 87 1012.4
20260507135009 57 49 0.0 3.0 0.00 0.23 0.14 88 1012.4
20260507134516 57 28 0.0 2.0 0.00 0.24 0.14 87 1012.4
20260507134009 56 5 0.0 4.0 0.00 0.24 0.14 87 1012.7
20260507133506 56 40 0.0 4.0 0.00 0.24 0.14 87 1012.5
20260507133016 56 38 2.0 5.0 0.00 0.24 0.14 87 1012.2
20260507132508 56 297 0.0 5.0 0.00 0.24 0.14 89 1012.1
20260507132005 56 25 1.0 5.0 0.00 0.24 0.14 89 1012.2
20260507131534 56 256 0.0 3.0 0.00 0.24 0.14 89 1011.8
20260507131010 56 318 0.0 2.0 0.00 0.24 0.14 89 1012.1
20260507130508 56 320 0.0 8.0 0.00 0.24 0.14 90 1012.3
20260507130020 56 297 0.0 8.0 0.00 0.24 0.14 90 1012.2
20260507125509 56 89 0.0 6.0 0.00 0.24 0.14 90 1012.1
20260507125005 56 21 1.0 6.0 0.00 0.24 0.14 91 1012.0
20260507124522 56 275 0.0 3.0 0.00 0.24 0.14 92 1012.1
20260507124010 55 30 0.0 3.0 0.00 0.24 0.14 92 1012.1
20260507123507 55 28 0.0 3.0 0.00 0.24 0.14 91 1011.9
20260507123028 55 348 0.0 2.0 0.00 0.24 0.14 92 1012.0
20260507122517 55 328 0.0 4.0 0.00 0.24 0.14 92 1012.1
20260507122006 55 311 0.0 4.0 0.00 0.24 0.14 92 1012.0
20260507121522 55 326 0.0 3.0 0.00 0.24 0.14 92 1012.0
20260507121011 55 34 0.0 3.0 0.00 0.24 0.14 92 1011.8
20260507120504 55 333 0.0 2.0 0.00 0.24 0.14 92 1011.8
20260507120029 55 336 0.0 2.0 0.00 0.24 0.14 92 1011.8
20260507115503 55 303 0.0 0.0 0.00 0.24 0.14 93 1012.0
20260507115006 55 303 0.0 0.0 0.00 0.24 0.14 92 1012.0
20260507114504 55 317 0.0 0.0 0.00 0.24 0.14 92 1012.0
20260507114003 55 309 0.0 0.0 0.00 0.24 0.14 93 1012.2
20260507113508 55 309 0.0 0.0 0.00 0.24 0.14 93 1012.1
20260507113004 55 309 0.0 0.0 0.01 0.24 0.14 93 1012.0
20260507112504 54 309 0.0 0.0 0.01 0.24 0.14 92 1011.9
20260507112011 54 309 0.0 0.0 0.01 0.24 0.14 92 1011.8
20260507111506 54 167 0.0 0.0 0.01 0.24 0.14 92 1011.5
20260507111007 54 42 0.0 0.0 0.01 0.24 0.14 92 1011.5
20260507110506 54 42 0.0 0.0 0.01 0.24 0.14 92 1011.6
20260507110004 55 279 0.0 0.0 0.01 0.24 0.14 92 1011.8
20260507105504 55 281 0.0 0.0 0.01 0.24 0.14 92 1011.7
20260507105009 55 281 0.0 0.0 0.01 0.24 0.14 92 1011.7
20260507104506 55 281 0.0 1.0 0.01 0.24 0.14 92 1011.5
20260507104006 55 281 0.0 1.0 0.01 0.24 0.14 92 1011.4
20260507103507 55 257 0.0 2.0 0.01 0.24 0.14 92 1011.4
20260507103026 55 325 0.0 2.0 0.00 0.23 0.13 92 1011.3
20260507102503 55 34 0.0 3.0 0.00 0.23 0.13 92 1011.2
20260507102010 55 20 0.0 3.0 0.01 0.23 0.13 92 1011.1
20260507101503 55 11 0.0 3.0 0.05 0.23 0.13 92 1010.8
20260507101011 56 221 0.0 5.0 0.07 0.23 0.13 92 1010.9
20260507100509 56 309 0.0 5.0 0.07 0.23 0.13 92 1011.1
20260507100009 56 305 0.0 3.0 0.08 0.23 0.13 92 1011.3
20260507095506 56 9 0.0 2.0 0.09 0.23 0.13 93 1011.3
20260507095011 56 26 0.0 4.0 0.10 0.23 0.13 92 1011.4
20260507094504 56 39 0.0 4.0 0.11 0.23 0.13 92 1011.4
20260507094007 56 67 0.0 4.0 0.12 0.23 0.13 92 1011.2
20260507093507 57 49 0.0 3.0 0.12 0.23 0.13 92 1011.3
20260507093005 57 164 0.0 2.0 0.12 0.23 0.13 92 1011.5
20260507092512 57 276 0.0 4.0 0.12 0.23 0.13 92 1011.4
20260507092010 57 352 0.0 4.0 0.12 0.22 0.12 92 1011.3
20260507091505 58 350 0.0 5.0 0.08 0.18 0.08 91 1011.1
20260507091008 58 347 1.0 5.0 0.06 0.16 0.06 91 1011.2
20260507090512 58 327 0.0 8.0 0.06 0.16 0.06 91 1011.0
20260507090009 59 269 2.0 8.0 0.05 0.15 0.05 90 1010.9
20260507085506 60 273 0.0 5.0 0.04 0.14 0.04 90 1011.0
20260507085003 60 312 1.0 7.0 0.03 0.13 0.03 89 1011.0
20260507084514 61 333 1.0 10.0 0.02 0.12 0.02 89 1010.9
20260507084007 62 339 1.0 10.0 0.01 0.11 0.01 89 1010.7
20260507083503 64 53 2.0 8.0 0.01 0.11 0.01 88 1010.8
20260507083019 65 301 2.0 7.0 0.01 0.11 0.01 89 1010.4
20260507082506 66 327 2.0 5.0 0.01 0.11 0.01 90 1010.2
20260507082003 66 333 0.0 2.0 0.00 0.10 0.00 90 1010.1
20260507081511 66 5 0.0 3.0 0.00 0.10 0.00 89 1010.2
20260507081014 67 326 0.0 3.0 0.00 0.10 0.00 89 1010.3
20260507080505 67 334 0.0 3.0 0.00 0.10 0.00 89 1010.4
20260507080015 67 5 0.0 1.0 0.00 0.10 0.00 88 1010.3
20260507075507 67 5 0.0 1.0 0.00 0.10 0.00 88 1010.0
20260507075003 67 5 0.0 1.0 0.00 0.10 0.00 88 1009.9
20260507074530 67 5 0.0 1.0 0.00 0.10 0.00 87 1009.6
20260507074008 67 9 0.0 3.0 0.00 0.10 0.00 87 1009.4
20260507073503 67 336 0.0 3.0 0.00 0.10 0.00 87 1009.7
20260507073012 67 338 0.0 3.0 0.00 0.10 0.00 87 1009.7
20260507072509 68 54 0.0 1.0 0.00 0.10 0.00 87 1009.7
20260507072003 68 54 0.0 3.0 0.00 0.10 0.00 87 1009.6
20260507071517 68 54 0.0 3.0 0.00 0.10 0.00 86 1009.7
20260507071009 68 54 0.0 3.0 0.00 0.10 0.00 86 1009.8
20260507070504 68 338 0.0 3.0 0.00 0.10 0.00 86 1009.9
20260507070021 68 197 0.0 3.0 0.00 0.10 0.00 85 1009.6
20260507065508 68 133 0.0 3.0 0.00 0.10 0.00 85 1009.5
20260507065003 68 57 0.0 3.0 0.00 0.10 0.00 85 1009.6
20260507064518 68 167 0.0 1.0 0.00 0.10 0.00 85 1009.4
20260507064010 68 26 0.0 1.0 0.00 0.10 0.00 85 1009.6
20260507063506 68 68 0.0 1.0 0.00 0.10 0.00 85 1009.6
20260507063028 68 59 0.0 1.0 0.00 0.10 0.00 84 1009.4
20260507062509 68 327 0.0 2.0 0.00 0.10 0.00 84 1009.2
20260507062006 68 330 0.0 2.0 0.00 0.10 0.00 84 1009.2
20260507061516 68 82 0.0 1.0 0.00 0.10 0.00 85 1009.1
20260507061013 68 89 0.0 2.0 0.00 0.10 0.00 85 1009.0
20260507060503 68 142 0.0 2.0 0.00 0.10 0.00 85 1009.0
20260507060029 68 117 0.0 1.0 0.00 0.10 0.00 85 1009.0
20260507055509 68 132 0.0 2.0 0.00 0.10 0.00 84 1008.9
20260507055005 68 182 0.0 2.0 0.00 0.10 0.00 84 1009.0
20260507054532 69 144 0.0 2.0 0.00 0.10 0.00 84 1009.2
20260507054009 69 173 0.0 2.0 0.00 0.10 0.00 84 1009.4
20260507053507 69 92 0.0 2.0 0.00 0.10 0.00 84 1009.1
20260507053030 69 126 0.0 2.0 0.00 0.10 0.00 84 1009.1
20260507052511 69 223 0.0 7.0 0.00 0.10 0.00 84 1009.2
20260507052010 69 184 0.0 7.0 0.00 0.10 0.00 84 1009.3
20260507051520 69 198 0.0 3.0 0.00 0.10 0.00 84 1009.4
20260507051016 69 169 0.0 3.0 0.00 0.10 0.00 84 1009.7
20260507050508 69 163 0.0 4.0 0.00 0.10 0.00 84 1009.8
20260507050046 69 123 0.0 4.0 0.00 0.10 0.00 84 1010.0
20260507045511 69 130 0.0 4.0 0.00 0.10 0.00 84 1010.2
20260507045008 69 5 1.0 4.0 0.00 0.10 0.00 84 1010.3
20260507044525 69 75 0.0 4.0 0.00 0.10 0.00 84 1010.4
20260507044010 69 203 0.0 4.0 0.00 0.10 0.00 84 1010.5
20260507043505 69 43 0.0 4.0 0.00 0.10 0.00 84 1010.4
20260507043028 68 226 1.0 5.0 0.00 0.10 0.00 84 1010.3
20260507042509 68 224 0.0 5.0 0.00 0.10 0.00 84 1010.6
20260507042007 68 276 0.0 2.0 0.00 0.10 0.00 85 1010.6
20260507041527 68 140 0.0 2.0 0.00 0.10 0.00 85 1010.6
20260507041010 68 132 0.0 3.0 0.00 0.10 0.00 85 1010.5
20260507040512 68 96 1.0 3.0 0.00 0.10 0.00 85 1010.2
20260507040026 68 91 0.0 3.0 0.00 0.10 0.00 85 1010.2
20260507035510 68 91 0.0 3.0 0.00 0.10 0.10 85 1010.3
20260507035007 68 76 0.0 2.0 0.00 0.10 0.10 85 1010.3
20260507034533 68 267 0.0 2.0 0.00 0.10 0.10 85 1010.5
20260507034017 68 194 0.0 2.0 0.00 0.10 0.10 85 1010.7
20260507033508 68 19 0.0 3.0 0.00 0.10 0.10 85 1010.7
20260507033031 68 309 0.0 3.0 0.00 0.10 0.10 85 1010.5
20260507032507 68 93 0.0 3.0 0.00 0.10 0.10 85 1010.4
20260507032007 68 147 0.0 4.0 0.00 0.10 0.10 84 1010.1
20260507031532 68 91 1.0 4.0 0.00 0.10 0.10 84 1010.1
20260507031010 68 175 0.0 6.0 0.00 0.10 0.10 85 1010.0
20260507030510 68 127 0.0 6.0 0.00 0.10 0.10 85 1009.9
20260507030033 68 167 0.0 3.0 0.00 0.10 0.10 85 1010.0
20260507025505 68 143 0.0 3.0 0.00 0.10 0.10 85 1009.9
20260507025002 68 172 0.0 4.0 0.00 0.10 0.10 84 1010.0
20260507024510 68 199 0.0 4.0 0.00 0.10 0.10 84 1009.7
20260507024004 68 134 0.0 7.0 0.00 0.10 0.10 84 1009.8
20260507023505 68 100 1.0 7.0 0.00 0.10 0.10 84 1009.9
20260507023006 68 180 1.0 7.0 0.00 0.10 0.10 84 1010.0
20260507022505 68 145 1.0 6.0 0.00 0.10 0.10 84 1009.9
20260507022002 68 161 1.0 4.0 0.00 0.10 0.10 84 1010.1
20260507021517 68 159 0.0 7.0 0.00 0.10 0.10 84 1010.1
20260507021004 68 163 0.0 7.0 0.00 0.10 0.10 84 1010.2
20260507020503 68 167 0.0 4.0 0.00 0.10 0.10 84 1010.3
20260507020006 68 209 0.0 4.0 0.00 0.10 0.10 84 1010.4
20260507015506 68 178 1.0 3.0 0.00 0.10 0.10 84 1010.4
20260507015001 69 188 0.0 5.0 0.00 0.10 0.10 84 1010.4
20260507014507 68 89 0.0 4.0 0.00 0.10 0.10 83 1010.5
20260507014013 68 189 0.0 2.0 0.00 0.10 0.10 83 1010.6
20260507013502 68 119 0.0 3.0 0.00 0.10 0.10 83 1010.4
20260507013010 68 177 0.0 3.0 0.00 0.10 0.10 83 1010.5
20260507012506 68 126 0.0 5.0 0.00 0.10 0.10 83 1010.4
20260507012004 68 155 1.0 5.0 0.00 0.10 0.10 83 1010.3
20260507011516 68 150 1.0 4.0 0.00 0.10 0.10 84 1010.3
20260507011004 68 158 1.0 3.0 0.00 0.10 0.10 84 1010.3
20260507010510 68 193 0.0 2.0 0.00 0.10 0.10 84 1010.3
20260507010026 68 163 0.0 2.0 0.00 0.10 0.10 84 1010.2
20260507005508 68 161 0.0 2.0 0.00 0.10 0.10 84 1010.0
20260507005005 68 137 0.0 2.0 0.00 0.10 0.10 84 1010.0
20260507004516 68 218 0.0 2.0 0.00 0.10 0.10 83 1010.1
20260507004007 68 61 0.0 3.0 0.00 0.10 0.10 83 1010.3
20260507003502 68 105 0.0 3.0 0.00 0.10 0.10 83 1010.2
20260507003016 68 159 0.0 1.0 0.00 0.10 0.10 83 1010.4
20260507002509 68 157 0.0 1.0 0.00 0.10 0.10 82 1010.4
20260507002004 68 148 0.0 3.0 0.00 0.10 0.10 82 1010.4
20260507001516 69 86 0.0 3.0 0.00 0.10 0.10 82 1010.4
20260507001007 69 215 0.0 3.0 0.00 0.10 0.10 82 1010.4
20260507000503 69 69 0.0 2.0 0.00 0.10 0.10 81 1010.5
20260507000015 69 93 0.0 2.0 0.00 0.10 0.10 81 1010.5
20260506235508 69 259 0.0 4.0 0.00 0.10 0.10 81 1010.4
20260506235007 69 180 1.0 4.0 0.00 0.10 0.10 80 1010.3
20260506234516 70 125 0.0 3.0 0.00 0.10 0.10 80 1010.2